Weather in Anchorage

United States     61°09′34″N   149°53′02″W
temp.,
°C
wind,
m/s
gust,
m/s
humid.,
%
clouds,
%
prec.,
mm/h
press.,
hPa
HPBL,
m
25 may, wed
wed2501:00+6ssw248353 0.0 101561
04:00+5s238516 0.0 101638
07:00+6s238497 0.0 101693
10:00+7sw227364 0.0 1016304
13:00+9wsw226837 0.0 1015504
16:00+10ssw22657 0.0 1014516
19:00+9sw44675 0.0 1013269
22:00+7ssw238013 0.0 101469
26 may, thu
thu2601:00+7s337710 0.0 101436
04:00+7s12765 0.0 101410
07:00+7ene007610 0.0 101438
10:00+9w116788 0.0 1014244
13:00+11ssw1163100 0.0 1014405
16:00+12ssw225874 0.0 1012552
19:00+11sw326557 0.0 1011296
22:00+9s237451 0.0 101137
27 may, fri
fri2701:00+10s226812 0.0 101116
04:00+8sw11768 0.0 101110
07:00+9nne11755 0.0 101142
10:00+11n23661 0.0 1011287
13:00+14s12570 0.0 1011553
16:00+13sw34615 0.0 1009690
19:00+14ssw35555 0.0 1009546
22:00+12s44615 0.0 100935
28 may, sat
sat2801:00+11ssw33625 0.0 101015
04:00+9sse117126 0.0 101012
07:00+10sse01715 0.0 101135
10:00+12wnw01625 0.0 1011232
13:00+15wsw11565 0.0 1011493
16:00+16sw21525 0.0 1009706
19:00+15ssw21534 0.0 1009406
22:00+13s226214 0.0 100918
29 may, sun
sun2901:00+13sse226625 0.4 101011
04:00+11ssw227589 0.9 101111
07:00+10w1274100 0.1 101244
10:00+12wnw126649 0.1 1013180
13:00+11wsw337056 0.0 1013305
16:00+9sw357456 0.1 1014211
19:00+9sw247556 0.0 1014154
22:00+8wnw128256 0.0 101564